Emerald Isle, NC (28594)

7:45 AM EDT on June 25, 2017 (GMT -0400)
| | Change Station
Active Advisory: Beach Hazard Statement

Elev -9999 ft 0.00 °N, 0.00 °E | Updated 11 minutes ago

Overcast
Overcast
°F
Feels Like °F
N
Wind Variable Wind from North
Gusts mph

Today
High -- | Low -- °F
--% Chance of Precip.
Yesterday
High -- | Low -- °F
Precip. -- in
Pressure 30.02 in
Visibility 10.0 miles
Clouds Mostly Cloudy 4400 ft
Overcast 5500 ft
Dew Point Not available.
Humidity Not available.
Rainfall --
Snow Depth Not available.
5:56 AM 8:24 PM
Waxing Crescent, 3% visible
METAR KNKT 251054Z 23004KT 10SM BKN044 OVC055 24/23 A3003 RMK AO2 RAE44 SLP166 P0001 T02390233
Pressure 30.02 in
Visibility 10.0 miles
Clouds Mostly Cloudy 4400 ft
Overcast 5500 ft
Dew Point Not available.
Humidity Not available.
Rainfall --
Snow Depth Not available.
5:56 AM 8:24 PM
Waxing Crescent, 3% visible
METAR KNKT 251054Z 23004KT 10SM BKN044 OVC055 24/23 A3003 RMK AO2 RAE44 SLP166 P0001 T02390233

Get Your Daily Forecast Email!

Thanks for signing up!

Be on the lookout for a verification email in your inbox.

You'll start receiving severe weather alerts in your inbox..

×

10-Day Weather Forecast

Almanac

Astronomy

Jun. 25, 2017 Rise Set
Actual Time
Civil Twilight
Nautical Twilight
Astronomical Twilight
Moon
Length of Visible Light
Length of Day
Tomorrow will be .
, % of the Moon is Illuminated

Today's Extremes

State Highs State Lows

Community

WunderPhotos

Category 6

Welcome to Category 6. This is the collective home for Weather Underground's featured writeups by Dr. Jeff Masters (right), Bob Henson (left), Chris Burt, and other regular contributors.

Nearby

Air Quality

  Air Quality AQ Index Pollutant
Not available.

Snow Depth

Station Depth Elevation

Earthquake Activity

City Distance Mag. Time & Date
Minimum magnitude displayed is 2.5.

Coastal Water Temperatures

Place Temperature

Stations

Nearby Weather Stations

Station Location Temp. Windchill Dew Point Humidity Wind Precip. Elev Updated Type
                   

Watches & Warnings

Beach Hazard Statement
Issued: 3:18 AM EDT Jun. 25, 2017 – National Weather Service

... Beach hazards statement remains in effect through this
evening...

* hazards... high threat of rip currents.

* Location... from Surf City to Cape Hatteras.

* Timing and tides... the most likely time for strong rip
currents to occur is a couple hours either side of low tide,
which will occur around 3 PM today.

Precautionary/preparedness actions...

If caught in a rip current remain calm. Don't fight the current.
Swim in a direction following the shoreline. When out of the
current, swim back to shore. If tired, float or tread water until
out of the rip current. If unable to escape, face the shore and
call or wave for help.